This demonstration page uses our WeatherBlox Daily Observations layout. Learn more.

Left ArrowRight Arrow

Hourly Observations for April 2, 2021

Temp ( °F °C ) Dew Point ( °F °C ) Humidity (%) Winds ( mph kmh ) Pressure ( in mb ) Visibility ( mi km ) Precip ( " mm )
12:53 am 00:53 Clear 48 8.9 21 -6.1 34 34 SW 12 19 29.72 1006 10 16 0.00 0.00
1:53 am 01:53 Clear 50 10 20 -6.7 30 30 SW 13 20 29.72 1007 10 16 0.00 0.00
2:53 am 02:53 Clear 47 8.3 21 -6.1 36 36 SW 9 15 29.74 1007 10 16 0.00 0.00
3:53 am 03:53 Clear 46 7.8 22 -5.6 38 38 W 8 13 29.76 1008 10 16 0.00 0.00
4:53 am 04:53 Clear 45 7.2 22 -5.6 40 40 WSW 9 15 29.78 1009 10 16 0.00 0.00
5:53 am 05:53 Mostly Cloudy 44 6.7 23 -5 43 43 SW 12 19 29.81 1010 10 16 0.00 0.00
6:53 am 06:53 Partly Cloudy 44 6.7 22 -5.6 41 41 SSW 9 15 29.83 1010 10 16 0.00 0.00
7:53 am 07:53 Sunny 43 6.1 24 -4.4 47 47 WSW 7 11 29.87 1012 10 16 0.00 0.00
8:53 am 08:53 Sunny 49 9.4 25 -3.9 39 39 SW 10 17 29.88 1012 10 16 0.00 0.00
9:53 am 09:53 Sunny 57 13.9 24 -4.4 28 28 SW 16 26 29.89 1012 10 16 0.00 0.00
10:53 am 10:53 Sunny 62 16.7 20 -6.7 20 20 SW 12 19 29.90 1012 10 16 0.00 0.00
11:53 am 11:53 Sunny 65 18.3 20 -6.7 18 18 WSW 13 20 29.89 1012 10 16 0.00 0.00
12:53 pm 12:53 Sunny 66 18.9 17 -8.3 15 15 W 15 24 29.88 1012 10 16 0.00 0.00
1:53 pm 13:53 Sunny 69 20.6 18 -7.8 14 14 W 14 22 29.87 1011 10 16 0.00 0.00
2:53 pm 14:53 Sunny 69 20.6 15 -9.4 12 12 W 17 28 29.87 1012 10 16 0.00 0.00
3:53 pm 15:53 Sunny 69 20.6 15 -9.4 12 12 W 17 28 29.86 1011 10 16 0.00 0.00
4:53 pm 16:53 Sunny 69 20.6 15 -9.4 12 12 WSW 12 19 29.85 1011 10 16 0.00 0.00
5:53 pm 17:53 Sunny 68 20 18 -7.8 15 15 WSW 5 7 29.85 1011 10 16 0.00 0.00
6:53 pm 18:53 Sunny 65 18.3 19 -7.2 17 17 Calm 29.85 1011 10 16 0.00 0.00
7:53 pm 19:53 Clear 51 10.6 22 -5.6 32 32 S 7 11 29.88 1012 10 16 0.00 0.00
8:53 pm 20:53 Clear 56 13.3 19 -7.2 24 24 Calm 29.87 1012 10 16 0.00 0.00
9:53 pm 21:53 Clear 47 8.3 24 -4.4 41 41 NNW 5 7 29.89 1012 10 16 0.00 0.00
10:53 pm 22:53 Clear 49 9.4 20 -6.7 32 32 WSW 5 7 29.89 1012 10 16 0.00 0.00
11:53 pm 23:53 Clear 47 8.3 21 -6.1 36 36 S 6 9 29.91 1013 10 16 0.00 0.00

Powered by AerisWeather